www.pogodaiklimat.ru

Погода и климат >> Архив погоды >> Великобритания >> Олтбея


ПОГОДА в Олтбее

  • Прогноз погоды в Олтбее
  • Монитор погоды в Олтбее

АРХИВ ПОГОДЫ в Олтбее

Время (UTC), дата Ветер
(напр.,м/с)
 
Видим.   Явления Облачность Т
(С)
Тd
(С)
f
(%)
Тe
(С)
Тes
(С)
Комфортность P
(гПа)
Po
(гПа)
Тmin
(С)
Tmax
(С)
R
(мм)
R24
(мм)
S
(см)
13 15.09 З 6 19 км н/о +12.7 +5.1 60 +11 +11 1020.7 1019.4
14 15.09 З 6 15 км н/о +12.4 +6.7 68 +10 +10 1020.9 1019.5
15 15.09 З 7 15 км н/о +12.8 +6.5 65 +10 +10 1020.9 1019.6
16 15.09 З 6 17 км н/о +12.7 +5.4 61 +10 +10 1020.8 1019.4
17 15.09 З 6 19 км н/о +12.2 +5.7 64 +10 +10 1020.7 1019.3
18 15.09 З 5 19 км н/о +11.9 +6.5 69 +10 +10 1020.7 1019.3 +13.3
19 15.09 ЮЗ 6 20 км н/о +11.1 +7.5 78 +8 +8 1020.8 1019.5
20 15.09 З 5 23 км н/о +11.1 +7.0 76 +9 +9 1021.0 1019.7
21 15.09 ЮЗ 3 17 км н/о +11.1 +7.5 78 +10 +10 1021.0 1019.6
22 15.09 З 5 20 км в посл. час дождь н/о +11.0 +7.3 78 +8 +8 1020.9 1019.6
23 15.09 ЮЗ 5 23 км слаб. морось с дождем н/о +11.2 +7.4 77 +9 +9 1020.7 1019.4
00 16.09 ЮЗ 4 20 км в посл. час дождь н/о +11.1 +7.9 81 +9 +9 1020.5 1019.1 0.0
01 16.09 З 4 21 км в посл. час дождь н/о +10.9 +8.3 84 +8 +8 1020.4 1019.0
02 16.09 ЮЗ 5 22 км н/о +11.5 +8.0 79 +9 +9 1020.1 1018.8
03 16.09 З 5 50 км в посл. час дождь н/о +10.5 +7.7 83 +8 +8 1020.2 1018.8
04 16.09 З 5 45 км в посл. час дождь н/о +10.3 +8.0 86 +7 +7 1019.7 1018.4
05 16.09 ЮЗ 7 13 км ливневой дождь н/о +10.8 +8.6 86 +7 +7 1019.4 1018.1
06 16.09 З 5 50 км в посл. час дождь н/о +10.4 +7.6 83 +7 +7 1019.2 1017.9 +9.8 0.8
07 16.09 З 5 30 км в посл. час дождь н/о +10.6 +8.5 87 +8 +8 1019.4 1018.1
08 16.09 З 7 35 км н/о +11.5 +8.1 80 +8 +8 1019.6 1018.3
09 16.09 ЮЗ 5 22 км в посл. час дождь н/о +11.8 +9.2 84 +9 +9 1019.8 1018.4
10 16.09 З 6 40 км н/о +11.9 +7.5 74 +9 +9 1020.2 1018.9
11 16.09 З 6 23 км н/о +12.5 +8.5 77 +10 +10 1020.0 1018.7
12 16.09 З 8
{13}
19 км в посл. час дождь н/о +12.3 +9.5 83 +9 +9 1020.4 1019.1 0.2
13 16.09 З 9
{13}
14 км в посл. час дождь н/о +11.9 +9.1 83 +8 +8 1020.6 1019.3
14 16.09 З 6 29 км н/о +13.0 +9.0 77 +11 +11 1020.5 1019.2
15 16.09 З 7 19 км н/о +13.6 +7.9 68 +11 +11 1020.3 1018.9
16 16.09 З 8 13 км ливневой дождь н/о +11.4 +8.4 82 +8 +8 1020.7 1019.4
17 16.09 З 9
{13}
19 км в посл. час дождь н/о +12.4 +5.9 65 +9 +9 1020.9 1019.6
18 16.09 З 7
{13}
19 км н/о +11.7 +5.2 64 +9 +9 1021.1 1019.7 +13.7 1
19 16.09 З 6 17 км н/о +11.4 +5.5 67 +9 +9 1021.3 1019.9
20 16.09 З 7 18 км н/о +11.3 +5.3 67 +8 +8 1021.6 1020.2
21 16.09 З 7 5000 м ливневой дождь н/о +10.1 +7.4 83 +6 +6 1022.1 1020.7
22 16.09 З 6 16 км в посл. час дождь н/о +10.3 +7.4 82 +7 +7 1022.1 1020.7
23 16.09 З 7 17 км н/о +10.8 +6.3 74 +7 +7 1022.3 1020.9
00 17.09 З 6 8000 м в посл. час дождь со снегом н/о +10.8 +5.6 70 +8 +8 1022.7 1021.3 1
01 17.09 З 5 20 км н/о +10.7 +4.6 66 +8 +8 1022.7 1021.4
02 17.09 З 6 23 км н/о +10.5 +4.5 66 +7 +7 1023.0 1021.6
03 17.09 З 6 17 км н/о +10.6 +5.0 68 +7 +7 1023.4 1022.0
04 17.09 З 5 20 км в посл. час дождь н/о +10.3 +5.3 71 +7 +7 1023.6 1022.2
05 17.09 СЗ 5 16 км в посл. час дождь н/о +9.9 +6.5 79 +7 +7 1024.0 1022.6
06 17.09 З 5 19 км н/о +10.3 +5.9 74 +7 +7 1024.2 1022.8 +9.5 1
07 17.09 СЗ 4 18 км в посл. час дождь н/о +10.4 +6.2 75 +8 +8 1024.9 1023.6
08 17.09 СЗ 4 17 км н/о +10.9 +7.1 77 +9 +9 1025.5 1024.1
09 17.09 СЗ 3 18 км н/о +11.1 +5.6 69 +9 +9 1026.0 1024.7
10 17.09 СЗ 4 19 км н/о +12.2 +4.7 60 +10 +10 1026.7 1025.4
11 17.09 СЗ 4 14 км н/о +12.4 +5.1 61 +11 +11 1027.1 1025.7
12 17.09 З 3 24 км н/о +12.3 +5.1 61 +11 +11 1027.3 1026.0 0.0
13 17.09 З 4 23 км н/о +12.5 +5.0 60 +11 +11 1027.6 1026.3
14 17.09 СЗ 3 20 км н/о +12.1 +4.9 61 +11 +11 1027.8 1026.5
15 17.09 З 3 14 км в посл. час дождь н/о +11.7 +6.6 71 +10 +10 1027.8 1026.4
16 17.09 ЮЗ 3 24 км н/о +12.2 +6.9 70 +11 +11 1027.7 1026.4
17 17.09 З 2 20 км н/о +11.9 +5.6 65 +11 +11 1027.4 1026.1
18 17.09 З 2 22 км н/о +11.3 +5.8 69 +11 +11 1027.6 1026.2 +12.8 0.0
19 17.09 З 1 21 км н/о +10.3 +6.0 75 +11 +11 1027.9 1026.5
20 17.09 ЮВ 1 13 км слаб. дождь н/о +10.1 +7.4 83 +11 +11 1028.1 1026.8
21 17.09 В 2 14 км слаб. дождь н/о +9.2 +7.7 90 +8 +8 1028.5 1027.1
22 17.09 В 3 24 км слаб. дождь н/о +8.7 +7.2 90 +6 +6 1028.3 1026.9
23 17.09 ЮВ 2 9000 м слаб. ливневой дождь н/о +9.3 +7.9 91 +7 +7 1028.3 1026.9
00 18.09 Ю 4 8000 м в посл. час дождь н/о +8.9 +8.0 94 +6 +6 1027.7 1026.3 1
01 18.09 Ю 4 8000 м слаб. морось с дождем н/о +8.8 +8.0 95 +6 +6 1027.3 1025.9
02 18.09 Ю 4 23 км в посл. час дождь н/о +9.0 +8.5 97 +6 +6 1026.3 1024.9
03 18.09 Ю 5 20 км н/о +9.6 +8.5 93 +6 +6 1025.6 1024.3
04 18.09 Ю 6 10 км н/о +10.5 +9.1 91 +7 +7 1025.2 1023.9
05 18.09 Ю 8 8000 м дымка н/о +10.9 +10.1 95 +7 +7 1025.1 1023.7
06 18.09 Ю 6 6000 м в посл. час дождь н/о +11.5 +11.0 97 +8 +8 1025.1 1023.8 +8.6 2
07 18.09 Ю 6 3300 м дымка н/о +12.0 +11.7 98 +9 +9 1025.4 1024.0
08 18.09 ЮЗ 6 3500 м слаб. морось с дождем н/о +12.7 +12.4 98 +10 +10 1025.7 1024.3
09 18.09 ЮЗ 4 3200 м слаб. морось н/о +13.3 +13.1 99 +12 +12 1026.1 1024.8
10 18.09 ЮЗ 4 9000 м в посл. час морось н/о +13.5 +13.2 98 +12 +12 1026.3 1025.0
11 18.09 ЮЗ 5 30 км н/о +14.0 +13.6 97 +12 +12 1026.8 1025.5
12 18.09 ЮЗ 5 30 км н/о +15.0 +13.7 92 +13 +13 1026.9 1025.5 0.8
13 18.09 ЮЗ 4 45 км н/о +14.9 +13.3 90 +14 +14 1027.2 1025.9
14 18.09 ЮЗ 3 50 км н/о +15.0 +13.3 90 +14 +14 1027.5 1026.2
15 18.09 ЮЗ 3 50 км н/о +14.8 +13.0 89 +14 +14 1027.9 1026.6
16 18.09 З 4 50 км н/о +14.3 +12.6 90 +13 +13 1027.9 1026.5
17 18.09 ЮЗ 3 45 км н/о +13.9 +12.7 92 +13 +13 1028.1 1026.8
18 18.09 ЮЗ 2 50 км н/о +13.6 +12.6 94 +13 +13 1028.3 1027.0 +15.7 0.8
19 18.09 ЮЗ 1 50 км н/о +13.5 +12.6 94 +14 +14 1028.5 1027.1
20 18.09 ЮЗ 2 28 км н/о +13.6 +12.8 95 +13 +13 1028.9 1027.5
21 18.09 ЮЗ 2 28 км н/о +13.6 +12.9 96 +13 +13 1028.8 1027.5
22 18.09 ЮЗ 3 11 км дымка н/о +13.4 +12.9 97 +12 +12 1029.1 1027.7
23 18.09 З 4 12 км дымка н/о +13.1 +12.7 97 +11 +11 1029.2 1027.9
00 19.09 ЮЗ 3 50 км н/о +13.0 +12.5 97 +12 +12 1029.1 1027.7
01 19.09 ЮЗ 4 50 км н/о +13.0 +12.0 94 +11 +11 1028.9 1027.6
02 19.09 ЮЗ 3 45 км н/о +12.9 +12.1 95 +11 +11 1028.8 1027.4
03 19.09 ЮЗ 4 50 км н/о +13.1 +11.8 92 +11 +11 1028.7 1027.4
04 19.09 ЮЗ 4 35 км в посл. час дождь н/о +12.9 +12.0 94 +11 +11 1028.5 1027.1
05 19.09 ЮЗ 3 45 км н/о +13.0 +11.8 92 +12 +12 1028.4 1027.1
06 19.09 З 4 18 км дым н/о +12.9 +11.7 92 +11 +11 1028.6 1027.3 +12.9 0.0
07 19.09 ЮЗ 4 45 км н/о +12.8 +11.6 92 +11 +11 1028.6 1027.3
08 19.09 ЮЗ 6 45 км н/о +12.9 +11.6 92 +10 +10 1029.1 1027.7
09 19.09 ЮЗ 7 50 км н/о +13.4 +11.4 88 +11 +11 1029.2 1027.8
10 19.09 ЮЗ 7 45 км н/о +13.8 +11.5 86 +11 +11 1029.3 1027.9
11 19.09 ЮЗ 8 7000 м дым н/о +13.4 +11.9 91 +11 +11 1029.2 1027.8
12 19.09 ЮЗ 7 50 км н/о +14.3 +11.7 84 +12 +12 1028.9 1027.6
13 19.09 ЮЗ 8 30 км н/о +14.3 +11.1 81 +12 +12 1029.1 1027.7
14 19.09 ЮЗ 8 50 км н/о +14.3 +11.6 84 +12 +12 1028.8 1027.4
15 19.09 ЮЗ 8 50 км н/о +14.0 +11.0 82 +12 +12 1028.3 1027.0
16 19.09 ЮЗ 7 50 км н/о +14.7 +11.2 80 +13 +13 1028.1 1026.8
17 19.09 ЮЗ 5 50 км н/о +14.7 +11.1 79 +13 +13 1028.0 1026.7
18 19.09 ЮЗ 6 50 км н/о +14.1 +10.5 79 +12 +12 1028.0 1026.6 +15.0
19 19.09 Ю 5 50 км н/о +13.0 +10.5 85 +11 +11 1027.8 1026.5
20 19.09 ЮЗ 5 50 км н/о +12.9 +9.6 80 +11 +11 1027.7 1026.3
21 19.09 ЮЗ 5 50 км н/о +12.8 +8.9 77 +11 +11 1027.8 1026.4
22 19.09 Ю 5 50 км н/о +12.0 +9.0 82 +10 +10 1027.8 1026.4
23 19.09 В 2 50 км н/о +10.1 +8.2 88 +9 +9 1027.5 1026.2
00 20.09 Ю 3 45 км н/о +10.1 +8.3 89 +8 +8 1027.0 1025.6
01 20.09 В 3 45 км н/о +7.6 +5.8 88 +5 +5 1026.4 1025.0
02 20.09 В 2 45 км н/о +9.7 +6.6 81 +8 +8 1025.9 1024.5
03 20.09 В 3 50 км н/о +8.6 +5.9 83 +6 +6 1025.5 1024.1
04 20.09 В 3 50 км н/о +8.8 +5.4 79 +7 +7 1025.1 1023.7
05 20.09 В 2 50 км н/о +10.1 +5.6 74 +9 +9 1024.4 1023.1
06 20.09 ЮВ 3 50 км н/о +10.6 +6.3 75 +9 +9 1024.3 1022.9 +7.6
07 20.09 В 3 50 км н/о +12.5 +6.5 67 +11 +11 1024.1 1022.8
08 20.09 В 2 40 км н/о +13.9 +8.0 68 +13 +13 1023.9 1022.5
09 20.09 ЮВ 3 45 км н/о +16.0 +9.8 67 +16 +16 1023.5 1022.2
10 20.09 ЮВ 2 35 км н/о +18.2 +10.7 62 +19 +19 1023.1 1021.8
11 20.09 ЮЗ 2 30 км н/о +18.9 +10.4 58 +20 +20 1022.8 1021.5
12 20.09 СЗ 2 26 км н/о +18.2 +11.0 63 +19 +19 1022.1 1020.8
13 20.09 З 2 30 км н/о +20.5 +9.4 49 +23 +23 комфорт 1021.5 1020.2
14 20.09 ЮЗ 3 28 км н/о +20.3 +10.7 54 +22 +22 комфорт 1020.6 1019.3
15 20.09 Ю 1 45 км н/о +21.9 +10.6 49 +24 +24 комфорт 1019.8 1018.5
16 20.09 ЮЗ 2 45 км н/о +20.6 +10.5 52 +23 +23 комфорт 1019.3 1018.0
17 20.09 ЮВ 1 50 км н/о +20.3 +11.3 56 +23 +23 комфорт 1018.5 1017.2
18 20.09 СВ 3 45 км н/о +17.1 +10.2 64 +17 +17 1018.0 1016.7 +22.8
19 20.09 СВ 4 45 км н/о +16.4 +9.7 65 +16 +16 1017.8 1016.5
20 20.09 Ю 1 50 км н/о +12.9 +9.0 77 +13 +13 1017.3 1016.0
21 20.09 В 1 40 км н/о +10.9 +8.8 87 +11 +11 1016.8 1015.5
22 20.09 В 1 45 км н/о +10.2 +8.9 92 +11 +11 1016.1 1014.7
23 20.09 СВ 1 50 км н/о +9.5 +8.6 94 +10 +10 1015.4 1014.0
00 21.09 ЮВ 1 45 км н/о +9.7 +8.4 92 +9 +9 1014.8 1013.4
01 21.09 В 2 50 км н/о +10.1 +8.4 89 +9 +9 1014.2 1012.9
02 21.09 В 2 50 км н/о +12.6 +8.1 74 +12 +12 1013.5 1012.2
03 21.09 С 1 50 км н/о +12.5 +8.4 76 +13 +13 1012.9 1011.6
04 21.09 З 1 50 км н/о +14.1 +8.5 69 +15 +15 1012.1 1010.7
05 21.09 В 1 50 км н/о +13.7 +9.1 74 +14 +14 1011.7 1010.4
06 21.09 ЮВ 4 50 км н/о +13.8 +9.2 74 +12 +12 1011.5 1010.2 +9.1
07 21.09 В 3 50 км н/о +13.8 +8.4 70 +13 +13 1011.2 1009.9
08 21.09 В 2 50 км н/о +16.8 +9.5 62 +17 +17 1010.7 1009.4
09 21.09 В 5 45 км н/о +19.5 +9.3 52 +20 +20 1010.2 1008.9
10 21.09 ЮВ 6 30 км н/о +21.0 +8.7 45 +22 +22 комфорт 1009.6 1008.3
11 21.09 ЮВ 6 28 км н/о +21.7 +8.9 44 +23 +23 комфорт 1009.0 1007.8
12 21.09 ЮВ 5 40 км н/о +22.4 +9.2 43 +24 +24 комфорт 1008.6 1007.3
13 21.09 ЮВ 5 40 км н/о +23.5 +8.0 37 +24 +24 комфорт 1007.8 1006.5
14 21.09 ЮВ 6 45 км н/о +23.7 +8.0 37 +24 +24 комфорт 1006.8 1005.6
15 21.09 ЮВ 4 35 км н/о +24.2 +7.9 35 +25 +25 комфорт 1006.2 1004.9
16 21.09 ЮВ 3 45 км н/о +23.5 +8.6 39 +24 +24 комфорт 1005.6 1004.3
17 21.09 ЮВ 3 40 км н/о +22.4 +9.4 44 +24 +24 комфорт 1005.3 1004.0
18 21.09 В 3 45 км н/о +20.4 +8.6 47 +22 +22 комфорт 1005.1 1003.9 +24.6
19 21.09 В 2 45 км н/о +18.7 +8.6 52 +20 +20 1005.4 1004.1
20 21.09 ЮВ 3 45 км н/о +17.5 +8.9 57 +18 +18 1005.4 1004.1
21 21.09 В 3 45 км н/о +18.2 +9.2 56 +19 +19 1005.1 1003.8
22 21.09 В 2 40 км н/о +16.4 +9.3 63 +17 +17 1004.9 1003.6
23 21.09 В 2 27 км н/о +14.4 +9.3 71 +14 +14 1004.6 1003.3
00 22.09 СВ 1 35 км н/о +13.6 +9.3 75 +15 +15 1004.4 1003.1
01 22.09 В 1 50 км н/о +13.2 +9.5 78 +13 +13 1004.0 1002.7
02 22.09 В 1 5000 м дым н/о +12.6 +8.8 78 +13 +13 1003.6 1002.3
03 22.09 В 2 40 км н/о +14.2 +9.6 74 +14 +14 1003.3 1002.0
04 22.09 ЮЗ 2 50 км н/о +13.9 +8.9 72 +14 +14 1003.0 1001.7
05 22.09 Ю 3 45 км н/о +14.7 +9.0 69 +14 +14 1002.5 1001.2
06 22.09 ЮВ 2 45 км н/о +12.9 +8.3 74 +12 +12 1002.3 1001.0 +12.0
07 22.09 В 2 45 км слаб. ливневой дождь н/о +13.6 +9.0 74 +13 +13 1001.9 1000.5
08 22.09 В 1 45 км в посл. час дождь н/о +14.9 +9.9 72 +16 +16 1001.8 1000.5
09 22.09 Ю 1 35 км в посл. час дождь н/о +16.2 +10.5 69 +17 +17 1001.8 1000.5
10 22.09 Ю 2 45 км н/о +17.6 +10.6 64 +18 +18 1001.5 1000.2
11 22.09 Ю 2 45 км н/о +18.1 +10.8 62 +19 +19 1001.5 1000.2
12 22.09 ЮВ 3 25 км н/о +19.7 +11.6 60 +22 +22 комфорт 1001.1 999.8 0.0
13 22.09 ЮВ 4 40 км н/о +20.3 +12.1 59 +22 +22 комфорт 1000.8 999.5

 

Местоположение метеостанции Олтбея (Великобритания): широта 57.87 долгота -5.63 высота над уровнем моря 10 м.

В архиве по умолчанию представлена погода в Олтбее за последнюю неделю. Архивные данные за месяц целиком и за предыдущие месяцы, начиная с января 2011 года, Вы можете получить, выбрав интересующий диапазон дат из раскрывающегося списка и нажав кнопку "Ввод!".


*Определитесь, кто Вы:
робот инопланетянин человек

Внимание! Время в таблицах - всемирное. Для получения местного времени необходимо прибавить поправку, которая равна 0 ч.

Смотрите также архив погоды в соседних городах и на ближайших метеорологических станциях:

Погода на Озере Гласкарнок (Великобритания) (47 км)
Погода на Перевале Bealach Na Ba (Великобритания) (50 км)
Погода в Сторновее (Великобритания) (56 км)
Погода на Скае (Великобритания) (70 км)
Погода на Алтнахарре (Великобритания) (84 км)
Погода в Тейн-Рендже (Великобритания) (98 км)
Погода на Южном Уисте (Великобритания) (120 км)
Погода на Горе Аонах Мор (Великобритания) (123 км)
Погода на Станции Tulloch Bridge (Великобритания) (124 км)
Погода в Кинлоссе (Великобритания) (125 км)

Пояснения к столбцам:

Ветер - указаны скорость ветра в м/с - средняя за 10 мин, порывы в срок и между сроками (в фигурных скобках) и направление, откуда дует ветер: С - северный, СВ - северо-восточный, В - восточный, ЮВ - юго-восточный, Ю - южный, ЮЗ - юго-западный, З - западный, СЗ - северо-западный.
Видимость - горизонтальная дальность видимости в метрах или километрах. При видимости от 1 до 10 км при отсутствии осадков обычно наблюдается дымка, при ухудшении видимости до 1 км и менее - туман. В сухую погоду видимость может ухудшаться дымом, пылью или мглою.
Явления - указаны атмосферные явления, наблюдавшиеся в срок или в последний час перед сроком; фигурными скобками обозначены явления, наблюдавшиеся между сроками (за 1-3 часа до срока); квадратными скобками обозначены град или гололедные отложения с указанием их диаметра в мм.
Облачность - указаны через наклонную черту общая и нижняя облачность в баллах и высота нижней границы облаков в метрах; квадратными скобками обозначены формы облаков: Ci - перистые, Cs - перисто-слоистые, Cc - перисто-кучевые, Ac - высококучевые, As - высокослоистые, Sc - слоисто-кучевые, Ns - слоисто-дождевые, Cu - кучевые, Cb - кучево-дождевые. Подробнее классификацию облаков см. в Атласе облаков (PDF).
T - Температура воздуха - температура, измеренная на высоте 2 м над землей.
Td - Температура точки росы - температура, при понижении до которой содержащийся в воздухе водяной пар достигнет насыщения.
f - Относительная влажность воздуха - влажноcть воздуха, измеренная на высоте 2 м над землей.
Te - Эффективная температура - температура, которую ощущает одетый по сезону человек в тени. Характеристика душности погоды. При расчете учитывается влияние влажности воздуха и скорости ветра на теплоощущения человека.
Tes - Эффективная температура на солнце - температура, которую ощущает человек, с поправкой на солнечный нагрев. Характеристика знойности погоды. Зависит от высоты солнца над горизонтом, облачности и скорости ветра. Ночью, в пасмурную погоду, а также при ветре 12 м/с и более поправка равна нулю.
P - Атмосферное давление - приведенное к уровню моря атмосферное давление.
Po - Атмосферное давление - измеренное на уровне метеостанции атмосферное давление.
Tmin - Минимальная температура - минимум температуры воздуха на высоте 2 м над землей.
Tmax - Максимальная температура - максимум температуры воздуха на высоте 2 м над землей.
R - Количество осадков - Количество выпавших осадков за период времени, мм. При наведении курсора мыши на число - период времени, за который выпало указанное количество осадков.
R24 - Количество осадков - Количество выпавших осадков за 24 часа, мм.
S - Снежный покров - Высота снежного покрова, см. При наведении курсора мыши на число - состояние снежного покрова и степень покрытия местности в баллах.